AVN185 NVVV-AGGH

Flight info

Callsign AVN185
Flight time 0h 41m
Altitude 40000
Route EMTEN1 JOZEF DCT SON DCT AKNAK DCT VAKRO VAKRO1A
Aircraft A339/H-SADE1E2E3GHIJ3J5M1P2RWXY/LB2D1

Departure

Time 2026-05-01 12:01
Airport Bauerfield International Airport (NVVV)

Arrival

Time 2026-05-01 12:43
Airport Honiara International Airport (AGGH)
Time Latitude Longitude Altitude Speed Heading
2026-05-01 11:51 -17.70094 168.31996 59 ft 0 kts 201°
2026-05-01 11:58 -17.70076 168.32002 61 ft 8 kts 206°
2026-05-01 11:58 -17.70071 168.32027 56 ft 0 kts 294°
2026-05-01 12:00 -17.70000 168.31959 57 ft 14 kts 332°
2026-05-01 12:00 -17.69690 168.31450 55 ft 22 kts 296°
2026-05-01 12:00 -17.69303 168.30689 51 ft 22 kts 312°
2026-05-01 12:01 -17.69263 168.30699 47 ft 4 kts 64°
2026-05-01 12:01 -17.69295 168.30758 49 ft 27 kts 126°
2026-05-01 12:01 -17.69759 168.31631 56 ft 152 kts 118°
2026-05-01 12:01 -17.72810 168.35383 2736 ft 191 kts 163°
2026-05-01 12:02 -17.76857 168.34797 3714 ft 261 kts 207°
2026-05-01 12:02 -17.78956 168.26340 6558 ft 290 kts 287°
2026-05-01 12:02 -17.70448 168.20920 9840 ft 295 kts 355°
2026-05-01 12:02 -17.61762 168.18991 10965 ft 345 kts 345°
2026-05-01 12:03 -17.52294 168.16518 13062 ft 355 kts 345°
2026-05-01 12:03 -17.42735 168.13491 14968 ft 362 kts 332°
2026-05-01 12:03 -17.32649 168.08540 16993 ft 371 kts 334°
2026-05-01 12:03 -17.15185 168.00158 20010 ft 386 kts 333°
2026-05-01 12:04 -16.97051 167.91392 22819 ft 404 kts 332°
2026-05-01 12:04 -16.86342 167.86268 24348 ft 411 kts 332°
2026-05-01 12:04 -16.69849 167.78381 26589 ft 419 kts 332°
2026-05-01 12:04 -16.51859 167.69777 28798 ft 428 kts 332°
2026-05-01 12:05 -16.37053 167.62702 30383 ft 437 kts 331°
2026-05-01 12:05 -16.05759 167.47807 32993 ft 456 kts 332°
2026-05-01 12:05 -15.82800 167.36892 34142 ft 459 kts 333°
2026-05-01 12:06 -15.69148 167.30431 34848 ft 457 kts 332°
2026-05-01 12:06 -15.55351 167.23883 35357 ft 460 kts 333°
2026-05-01 12:06 -15.45473 167.15255 35980 ft 452 kts 307°
2026-05-01 12:06 -15.37507 167.05170 36684 ft 450 kts 309°
2026-05-01 12:07 -15.29523 166.95174 37369 ft 448 kts 308°
2026-05-01 12:07 -15.16127 166.78409 38451 ft 444 kts 309°
2026-05-01 12:07 -15.07286 166.67359 38953 ft 443 kts 309°
2026-05-01 12:07 -14.99420 166.57559 39396 ft 442 kts 309°
2026-05-01 12:08 -14.90797 166.46820 39867 ft 441 kts 309°
2026-05-01 12:08 -14.80030 166.33417 39888 ft 438 kts 309°
2026-05-01 12:08 -14.56306 166.04005 39909 ft 441 kts 309°
2026-05-01 12:09 -14.40600 165.84560 39881 ft 445 kts 309°
2026-05-01 12:09 -14.24116 165.64223 39883 ft 447 kts 309°
2026-05-01 12:10 -13.93516 165.26611 39940 ft 443 kts 309°
2026-05-01 12:11 -13.69493 164.97194 39910 ft 448 kts 310°
2026-05-01 12:11 -13.53410 164.77559 39913 ft 449 kts 310°
2026-05-01 12:12 -13.37419 164.58081 39904 ft 450 kts 310°
2026-05-01 12:12 -13.21093 164.38350 39943 ft 451 kts 314°
2026-05-01 12:13 -13.03082 164.19679 39880 ft 451 kts 314°
2026-05-01 12:13 -12.84281 164.00181 39890 ft 452 kts 314°
2026-05-01 12:14 -12.64873 163.80101 39922 ft 453 kts 315°
2026-05-01 12:14 -12.46627 163.61254 40009 ft 453 kts 315°
2026-05-01 12:15 -12.21547 163.35418 40090 ft 446 kts 315°
2026-05-01 12:15 -12.10386 163.23967 39943 ft 453 kts 315°
2026-05-01 12:15 -11.96991 163.10226 40025 ft 449 kts 315°
2026-05-01 12:16 -11.84787 162.97714 39881 ft 455 kts 315°
2026-05-01 12:16 -11.75859 162.88574 39894 ft 454 kts 316°
2026-05-01 12:16 -11.57988 162.70307 39882 ft 454 kts 316°
2026-05-01 12:17 -11.40207 162.52166 39913 ft 456 kts 316°
2026-05-01 12:17 -11.27642 162.39374 39773 ft 455 kts 316°
2026-05-01 12:17 -11.14228 162.25735 39915 ft 456 kts 316°
2026-05-01 12:18 -10.95625 162.06846 39927 ft 462 kts 316°
2026-05-01 12:18 -10.72015 161.82918 39894 ft 466 kts 316°
2026-05-01 12:19 -10.42674 161.53268 39920 ft 463 kts 316°
2026-05-01 12:19 -10.18866 161.29258 39846 ft 461 kts 316°
2026-05-01 12:20 -10.16592 161.26971 40007 ft 460 kts 316°
2026-05-01 12:20 -10.14319 161.24688 39884 ft 459 kts 316°
2026-05-01 12:20 -10.12068 161.22425 39656 ft 461 kts 316°
2026-05-01 12:20 -10.09783 161.20128 39423 ft 462 kts 316°
2026-05-01 12:21 -10.07498 161.17829 39193 ft 463 kts 316°
2026-05-01 12:21 -10.05206 161.15524 38959 ft 463 kts 316°
2026-05-01 12:21 -10.02915 161.13220 38734 ft 465 kts 316°
2026-05-01 12:21 -10.00607 161.10900 38495 ft 466 kts 316°
2026-05-01 12:22 -9.98301 161.08581 38230 ft 468 kts 316°
2026-05-01 12:22 -9.96017 161.06286 37964 ft 468 kts 316°
2026-05-01 12:22 -9.93703 161.03960 37706 ft 469 kts 316°
2026-05-01 12:22 -9.91381 161.01627 37454 ft 470 kts 316°
2026-05-01 12:23 -9.89058 160.99294 37192 ft 470 kts 316°
2026-05-01 12:23 -9.86742 160.96941 36943 ft 471 kts 314°
2026-05-01 12:23 -9.84615 160.94409 36412 ft 473 kts 308°
2026-05-01 12:23 -9.82726 160.91657 35548 ft 478 kts 304°
2026-05-01 12:24 -9.80873 160.88826 34404 ft 485 kts 305°
2026-05-01 12:24 -9.78992 160.85976 33009 ft 492 kts 305°
2026-05-01 12:24 -9.77062 160.83074 31576 ft 496 kts 305°
2026-05-01 12:24 -9.75122 160.80168 30425 ft 495 kts 305°
2026-05-01 12:25 -9.73223 160.77326 29552 ft 490 kts 305°
2026-05-01 12:25 -9.69464 160.71701 28515 ft 470 kts 305°
2026-05-01 12:25 -9.67641 160.68974 27862 ft 464 kts 305°
2026-05-01 12:26 -9.65840 160.66283 27214 ft 461 kts 305°
2026-05-01 12:26 -9.62284 160.60972 25879 ft 454 kts 305°
2026-05-01 12:26 -9.60487 160.58291 25204 ft 452 kts 304°
2026-05-01 12:27 -9.58723 160.55657 24512 ft 450 kts 304°
2026-05-01 12:27 -9.55243 160.50465 23108 ft 447 kts 304°
2026-05-01 12:28 -9.51787 160.45306 21847 ft 436 kts 303°
2026-05-01 12:28 -9.50095 160.42778 21187 ft 431 kts 303°
2026-05-01 12:28 -9.46759 160.37801 19877 ft 422 kts 303°
2026-05-01 12:29 -9.45112 160.35347 19233 ft 417 kts 303°
2026-05-01 12:29 -9.43483 160.32919 18599 ft 414 kts 303°
2026-05-01 12:29 -9.40281 160.28147 17275 ft 403 kts 303°
2026-05-01 12:30 -9.37209 160.23565 16066 ft 390 kts 303°
2026-05-01 12:30 -9.35688 160.21298 15457 ft 385 kts 303°
2026-05-01 12:30 -9.34188 160.19063 14824 ft 381 kts 303°
2026-05-01 12:31 -9.32711 160.16864 14239 ft 376 kts 304°
2026-05-01 12:31 -9.31249 160.14688 13610 ft 372 kts 304°
2026-05-01 12:31 -9.29806 160.12540 13051 ft 365 kts 304°
2026-05-01 12:31 -9.28391 160.10434 12479 ft 359 kts 304°
2026-05-01 12:32 -9.26999 160.08362 11906 ft 353 kts 304°
2026-05-01 12:32 -9.24274 160.04313 10793 ft 345 kts 304°
2026-05-01 12:32 -9.22940 160.02264 10397 ft 356 kts 298°
2026-05-01 12:33 -9.22120 159.99951 10299 ft 345 kts 278°
2026-05-01 12:33 -9.22132 159.97589 10186 ft 328 kts 257°
2026-05-01 12:33 -9.22929 159.95521 10043 ft 307 kts 236°
2026-05-01 12:33 -9.24337 159.93972 9664 ft 295 kts 216°
2026-05-01 12:34 -9.26002 159.92809 9502 ft 294 kts 212°
2026-05-01 12:34 -9.27667 159.91610 9264 ft 299 kts 216°
2026-05-01 12:34 -9.29273 159.90256 8903 ft 299 kts 220°
2026-05-01 12:34 -9.30772 159.88826 8528 ft 292 kts 222°
2026-05-01 12:35 -9.32187 159.87391 8172 ft 283 kts 223°
2026-05-01 12:35 -9.33537 159.85994 7818 ft 273 kts 224°
2026-05-01 12:35 -9.34843 159.84641 7471 ft 263 kts 223°
2026-05-01 12:35 -9.36126 159.83319 7167 ft 274 kts 223°
2026-05-01 12:36 -9.37543 159.81874 6920 ft 297 kts 223°
2026-05-01 12:36 -9.38992 159.80396 6870 ft 292 kts 223°
2026-05-01 12:36 -9.40538 159.79157 6568 ft 285 kts 206°
2026-05-01 12:36 -9.42408 159.78602 6057 ft 279 kts 182°
2026-05-01 12:37 -9.44305 159.78856 5463 ft 275 kts 159°
2026-05-01 12:37 -9.45971 159.79680 5346 ft 267 kts 149°
2026-05-01 12:37 -9.47583 159.80599 5231 ft 258 kts 150°
2026-05-01 12:37 -9.49127 159.81397 5131 ft 240 kts 153°
2026-05-01 12:38 -9.50528 159.82212 4984 ft 226 kts 137°
2026-05-01 12:38 -9.51374 159.83509 4992 ft 227 kts 108°
2026-05-01 12:38 -9.51456 159.85090 5018 ft 228 kts 78°
2026-05-01 12:38 -9.50885 159.86564 4998 ft 221 kts 64°
2026-05-01 12:39 -9.50143 159.87864 4936 ft 205 kts 62°
2026-05-01 12:39 -9.49467 159.89078 4820 ft 191 kts 64°
2026-05-01 12:39 -9.48923 159.90199 4708 ft 181 kts 67°
2026-05-01 12:39 -9.48426 159.91345 4449 ft 182 kts 69°
2026-05-01 12:40 -9.47879 159.92699 3882 ft 214 kts 71°
2026-05-01 12:40 -9.47490 159.94088 4269 ft 196 kts 77°
2026-05-01 12:40 -9.47152 159.95373 4730 ft 183 kts 73°
2026-05-01 12:40 -9.46593 159.96481 5071 ft 170 kts 66°
2026-05-01 12:41 -9.46083 159.97569 5038 ft 173 kts 69°
2026-05-01 12:41 -9.45514 159.98667 4240 ft 190 kts 59°
2026-05-01 12:41 -9.44785 159.99896 2774 ft 217 kts 63°
2026-05-01 12:41 -9.44178 160.01351 1253 ft 229 kts 67°
2026-05-01 12:42 -9.43673 160.02861 359 ft 219 kts 72°
2026-05-01 12:42 -9.43240 160.04224 89 ft 189 kts 71°
2026-05-01 12:42 -9.42860 160.05361 38 ft 143 kts 69°
2026-05-01 12:42 -9.42616 160.05998 32 ft 50 kts 69°
2026-05-01 12:43 -9.42496 160.06296 31 ft 42 kts 68°
2026-05-01 12:43 -9.42376 160.06363 31 ft 15 kts 343°